Location: Bushrod
(6.3500°N, 10.7833°W)
Time: 14:20:12
(UTC+00:00)

Cosmos 2360 Rocket - Pass Details

Date: 17 September 2019
Orbit: 833 x 846 km, 71.0° (Epoch: 18 October)

Event Time Altitude Azimuth Distance (km) Brightness Sun altitude
Rises 19:12:21 0° 10° (N) 3,386 5.3 -8.4°
Reaches altitude 10° 19:15:27 10° 27° (NNE) 2,455 4.4 -9.1°
Maximum altitude 19:19:28 20° 73° (ENE) 1,857 3.4 -10.1°
Enters shadow 19:22:55 12° 114° (ESE) 2,320 3.9 -11.0°
